Time,TemperatureF,DewpointF,PressureIn,WindDirection,WindDirectionDegrees,WindSpeedMPH,WindSpeedGustMPH,Humidity,HourlyPrecipIn,Conditions,Clouds,dailyrainin,SoftwareType,DateUTC
2013-05-01 00:02:00,-999.0,-99.9,30.09,North,5,6.0,9.0,-999,-99.99,,,-99.99,,2013-05-01 08:02:00,
2013-05-01 00:12:00,-999.0,-99.9,30.09,North,356,8.0,10.0,-999,-99.99,,,-99.99,,2013-05-01 08:12:00,
2013-05-01 00:22:00,18.0,-99.9,30.09,North,354,7.0,9.0,-999,-99.99,,,-99.99,,2013-05-01 08:22:00,
2013-05-01 00:32:00,-999.0,-99.9,30.09,NNW,345,10.0,11.0,-999,-99.99,,,-99.99,,2013-05-01 08:32:00,
2013-05-01 00:42:00,17.0,-99.9,30.09,North,350,8.0,11.0,-999,-99.99,,,-99.99,,2013-05-01 08:42:00,
2013-05-01 00:53:00,-999.0,-99.9,30.09,NNE,15,10.0,12.0,-999,-99.99,,,-99.99,,2013-05-01 08:53:00,
2013-05-01 01:02:00,-999.0,-99.9,30.09,North,5,11.0,15.0,-999,-99.99,,,-99.99,,2013-05-01 09:02:00,
2013-05-01 01:12:00,-999.0,-99.9,30.09,NNE,32,10.0,15.0,-999,-99.99,,,-99.99,,2013-05-01 09:12:00,
2013-05-01 01:22:00,-999.0,-99.9,30.09,NNE,33,11.0,17.0,-999,-99.99,,,-99.99,,2013-05-01 09:22:00,
2013-05-01 01:33:00,-999.0,-99.9,30.09,NNE,24,17.0,20.0,-999,-99.99,,,-99.99,,2013-05-01 09:33:00,
2013-05-01 01:43:00,19.0,-99.9,30.08,North,8,15.0,20.0,-999,-99.99,,,-99.99,,2013-05-01 09:43:00,
2013-05-01 01:53:00,-999.0,-99.9,30.09,NNE,20,13.0,14.0,-999,-99.99,,,-99.99,,2013-05-01 09:53:00,
2013-05-01 02:03:00,-999.0,-99.9,30.09,NNE,29,9.0,11.0,-999,-99.99,,,-99.99,,2013-05-01 10:03:00,
2013-05-01 02:12:00,18.0,-99.9,30.09,North,-999,8.0,9.0,-999,-99.99,,,-99.99,,2013-05-01 10:12:00,
2013-05-01 02:22:00,-999.0,-99.9,30.09,NNE,31,6.0,13.0,-999,-99.99,,,-99.99,,2013-05-01 10:22:00,
2013-05-01 02:33:00,-999.0,-99.9,30.09,North,6,7.0,9.0,-999,-99.99,,,-99.99,,2013-05-01 10:33:00,
2013-05-01 02:42:00,17.0,-99.9,30.08,NNW,343,8.0,11.0,-999,-99.99,,,-99.99,,2013-05-01 10:42:00,
2013-05-01 02:53:00,-999.0,-99.9,30.08,NNW,343,7.0,9.0,-999,-99.99,,,-99.99,,2013-05-01 10:53:00,
2013-05-01 03:03:00,-999.0,-99.9,30.06,North,4,15.0,20.0,-999,-99.99,,,-99.99,,2013-05-01 11:03:00,
2013-05-01 03:11:00,18.0,-99.9,30.07,NNE,15,12.0,23.0,-999,-99.99,,,-99.99,,2013-05-01 11:11:00,
2013-05-01 03:22:00,-999.0,-99.9,30.06,North,353,18.0,25.0,-999,-99.99,,,-99.99,,2013-05-01 11:22:00,
2013-05-01 03:32:00,-999.0,-99.9,30.06,North,8,15.0,21.0,-999,-99.99,,,-99.99,,2013-05-01 11:32:00,
2013-05-01 03:42:00,-999.0,-99.9,30.06,NNE,12,13.0,16.0,-999,-99.99,,,-99.99,,2013-05-01 11:42:00,
2013-05-01 03:52:00,17.0,-99.9,30.06,North,5,13.0,17.0,-999,-99.99,,,-99.99,,2013-05-01 11:52:00,
2013-05-01 04:02:00,-999.0,-99.9,30.06,North,3,12.0,21.0,-999,-99.99,,,-99.99,,2013-05-01 12:02:00,
2013-05-01 04:11:00,17.0,-99.9,30.06,North,7,12.0,17.0,-999,-99.99,,,-99.99,,2013-05-01 12:11:00,
2013-05-01 04:22:00,-999.0,-99.9,30.06,WSW,250,2.0,4.0,-999,-99.99,,,-99.99,,2013-05-01 12:22:00,
2013-05-01 04:32:00,-999.0,-99.9,30.07,East,90,1.0,5.0,-999,-99.99,,,-99.99,,2013-05-01 12:32:00,
2013-05-01 04:42:00,15.0,-99.9,30.06,WNW,303,4.0,5.0,-999,-99.99,,,-99.99,,2013-05-01 12:42:00,
2013-05-01 04:52:00,-999.0,-99.9,30.06,NW,326,6.0,7.0,-999,-99.99,,,-99.99,,2013-05-01 12:52:00,
2013-05-01 05:02:00,-999.0,-99.9,30.06,North,11,4.0,7.0,-999,-99.99,,,-99.99,,2013-05-01 13:02:00,
2013-05-01 05:11:00,13.0,-99.9,30.06,WNW,292,8.0,9.0,-999,-99.99,,,-99.99,,2013-05-01 13:11:00,
2013-05-01 05:22:00,-999.0,-99.9,30.06,North,359,2.0,6.0,-999,-99.99,,,-99.99,,2013-05-01 13:22:00,
2013-05-01 05:32:00,-999.0,-99.9,30.05,NW,325,4.0,6.0,-999,-99.99,,,-99.99,,2013-05-01 13:32:00,
2013-05-01 05:42:00,-999.0,-99.9,30.05,South,172,2.0,5.0,-999,-99.99,,,-99.99,,2013-05-01 13:42:00,
2013-05-01 05:52:00,-999.0,-99.9,30.05,NW,320,3.0,3.0,-999,-99.99,,,-99.99,,2013-05-01 13:52:00,
2013-05-01 06:02:00,-999.0,-99.9,30.05,NNW,335,0.0,2.0,-999,-99.99,,,-99.99,,2013-05-01 14:02:00,
2013-05-01 06:11:00,15.0,-99.9,30.05,North,2,1.0,4.0,-999,-99.99,,,-99.99,,2013-05-01 14:11:00,
2013-05-01 06:22:00,15.0,-99.9,30.05,NNW,334,6.0,10.0,-999,-99.99,,,-99.99,,2013-05-01 14:22:00,
2013-05-01 06:32:00,-999.0,-99.9,30.04,NW,315,7.0,10.0,-999,-99.99,,,-99.99,,2013-05-01 14:32:00,
2013-05-01 06:42:00,17.0,-99.9,30.04,NW,324,7.0,16.0,-999,-99.99,,,-99.99,,2013-05-01 14:42:00,
2013-05-01 06:52:00,-999.0,-99.9,30.04,NW,310,9.0,13.0,-999,-99.99,,,-99.99,,2013-05-01 14:52:00,
2013-05-01 07:01:00,-999.0,-99.9,30.04,North,359,7.0,9.0,-999,-99.99,,,-99.99,,2013-05-01 15:01:00,
2013-05-01 07:11:00,15.0,-99.9,30.04,North,5,6.0,9.0,-999,-99.99,,,-99.99,,2013-05-01 15:11:00,
2013-05-01 07:22:00,-999.0,-99.9,30.04,NNE,23,4.0,7.0,-999,-99.99,,,-99.99,,2013-05-01 15:22:00,
2013-05-01 07:33:00,-999.0,-99.9,30.04,NE,37,8.0,10.0,-999,-99.99,,,-99.99,,2013-05-01 15:33:00,
2013-05-01 07:43:00,16.0,-99.9,30.05,NNE,14,10.0,13.0,-999,-99.99,,,-99.99,,2013-05-01 15:43:00,
2013-05-01 07:53:00,-999.0,-99.9,30.05,NE,35,6.0,10.0,-999,-99.99,,,-99.99,,2013-05-01 15:53:00,
2013-05-01 08:03:00,-999.0,-99.9,30.05,NE,51,5.0,6.0,-999,-99.99,,,-99.99,,2013-05-01 16:03:00,
2013-05-01 08:12:00,-999.0,-99.9,30.05,NE,49,9.0,9.0,-999,-99.99,,,-99.99,,2013-05-01 16:12:00,
2013-05-01 08:22:00,-999.0,-99.9,30.04,North,8,7.0,9.0,-999,-99.99,,,-99.99,,2013-05-01 16:22:00,
2013-05-01 08:32:00,-999.0,-99.9,30.04,NNW,348,13.0,15.0,-999,-99.99,,,-99.99,,2013-05-01 16:32:00,
2013-05-01 08:42:00,16.0,-99.9,30.04,North,-999,9.0,13.0,-999,-99.99,,,-99.99,,2013-05-01 16:42:00,
2013-05-01 08:53:00,-999.0,-99.9,30.04,North,3,10.0,13.0,-999,-99.99,,,-99.99,,2013-05-01 16:53:00,
2013-05-01 09:02:00,-999.0,-99.9,30.03,NNW,348,14.0,17.0,-999,-99.99,,,-99.99,,2013-05-01 17:02:00,
2013-05-01 09:12:00,15.0,-99.9,30.02,NNW,340,16.0,19.0,-999,-99.99,,,-99.99,,2013-05-01 17:12:00,
2013-05-01 09:22:00,-999.0,-99.9,30.03,NNW,347,10.0,15.0,-999,-99.99,,,-99.99,,2013-05-01 17:22:00,
2013-05-01 09:32:00,-999.0,-99.9,30.03,SSE,151,4.0,10.0,-999,-99.99,,,-99.99,,2013-05-01 17:32:00,
2013-05-01 09:42:00,16.0,-99.9,30.03,SSW,212,6.0,9.0,-999,-99.99,,,-99.99,,2013-05-01 17:42:00,
2013-05-01 09:52:00,-999.0,-99.9,30.03,East,101,3.0,6.0,-999,-99.99,,,-99.99,,2013-05-01 17:52:00,
2013-05-01 10:02:00,-999.0,-99.9,30.03,NE,41,11.0,18.0,-999,-99.99,,,-99.99,,2013-05-01 18:02:00,
2013-05-01 10:12:00,19.0,-99.9,30.03,NNE,20,13.0,17.0,-999,-99.99,,,-99.99,,2013-05-01 18:12:00,
2013-05-01 10:22:00,-999.0,-99.9,30.03,NNE,26,12.0,17.0,-999,-99.99,,,-99.99,,2013-05-01 18:22:00,
2013-05-01 10:32:00,-999.0,-99.9,30.03,NNE,27,12.0,16.0,-999,-99.99,,,-99.99,,2013-05-01 18:32:00,
2013-05-01 10:42:00,-999.0,-99.9,30.03,North,356,8.0,13.0,-999,-99.99,,,-99.99,,2013-05-01 18:42:00,
2013-05-01 10:52:00,-999.0,-99.9,30.03,WNW,303,10.0,15.0,-999,-99.99,,,-99.99,,2013-05-01 18:52:00,
2013-05-01 11:02:00,-999.0,-99.9,30.04,WNW,291,6.0,13.0,-999,-99.99,,,-99.99,,2013-05-01 19:02:00,
2013-05-01 11:11:00,20.0,-99.9,30.03,ESE,107,4.0,12.0,-999,-99.99,,,-99.99,,2013-05-01 19:11:00,
2013-05-01 11:22:00,-999.0,-99.9,30.04,ESE,110,7.0,15.0,-999,-99.99,,,-99.99,,2013-05-01 19:22:00,
2013-05-01 11:32:00,-999.0,-99.9,30.02,NNE,32,20.0,24.0,-999,-99.99,,,-99.99,,2013-05-01 19:32:00,
2013-05-01 11:43:00,20.0,-99.9,30.02,NE,38,16.0,26.0,-999,-99.99,,,-99.99,,2013-05-01 19:43:00,
2013-05-01 11:52:00,-999.0,-99.9,30.03,NNE,19,12.0,17.0,-999,-99.99,,,-99.99,,2013-05-01 19:52:00,
2013-05-01 12:02:00,-999.0,-99.9,30.02,NNE,19,18.0,26.0,-999,-99.99,,,-99.99,,2013-05-01 20:02:00,
2013-05-01 12:11:00,21.0,-99.9,30.02,NNE,27,18.0,26.0,-999,-99.99,,,-99.99,,2013-05-01 20:11:00,
2013-05-01 12:22:00,-999.0,-99.9,30.03,NNE,14,18.0,24.0,-999,-99.99,,,-99.99,,2013-05-01 20:22:00,
2013-05-01 12:32:00,-999.0,-99.9,30.02,NNE,28,21.0,26.0,-999,-99.99,,,-99.99,,2013-05-01 20:32:00,
2013-05-01 12:42:00,22.0,-99.9,30.03,NNE,19,13.0,24.0,-999,-99.99,,,-99.99,,2013-05-01 20:42:00,
2013-05-01 12:52:00,-999.0,-99.9,30.03,NE,35,17.0,25.0,-999,-99.99,,,-99.99,,2013-05-01 20:52:00,
2013-05-01 13:01:00,-999.0,-99.9,30.02,NNE,20,18.0,23.0,-999,-99.99,,,-99.99,,2013-05-01 21:01:00,
2013-05-01 13:11:00,-999.0,-99.9,30.01,North,10,17.0,24.0,-999,-99.99,,,-99.99,,2013-05-01 21:11:00,
2013-05-01 13:22:00,22.0,-99.9,30.02,NNE,13,20.0,26.0,-999,-99.99,,,-99.99,,2013-05-01 21:22:00,
2013-05-01 13:32:00,-999.0,-99.9,30.02,NE,36,20.0,28.0,-999,-99.99,,,-99.99,,2013-05-01 21:32:00,
2013-05-01 13:43:00,23.0,-99.9,30.02,NNE,33,19.0,23.0,-999,-99.99,,,-99.99,,2013-05-01 21:43:00,
2013-05-01 13:53:00,-999.0,-99.9,30.02,NNE,27,21.0,28.0,-999,-99.99,,,-99.99,,2013-05-01 21:53:00,
2013-05-01 14:03:00,-999.0,-99.9,30.01,NE,40,24.0,30.0,-999,-99.99,,,-99.99,,2013-05-01 22:03:00,
2013-05-01 14:13:00,-999.0,-99.9,30.00,NE,36,26.0,33.0,-999,-99.99,,,-99.99,,2013-05-01 22:13:00,
2013-05-01 14:23:00,-999.0,-99.9,30.01,NNE,32,25.0,32.0,-999,-99.99,,,-99.99,,2013-05-01 22:23:00,
2013-05-01 14:33:00,-999.0,-99.9,30.02,NNE,28,21.0,28.0,-999,-99.99,,,-99.99,,2013-05-01 22:33:00,
2013-05-01 14:42:00,23.0,-99.9,30.02,NNE,21,15.0,29.0,-999,-99.99,,,-99.99,,2013-05-01 22:42:00,
2013-05-01 14:53:00,-999.0,-99.9,30.02,NNE,29,19.0,23.0,-999,-99.99,,,-99.99,,2013-05-01 22:53:00,
2013-05-01 15:02:00,-999.0,-99.9,30.01,NNE,12,17.0,25.0,-999,-99.99,,,-99.99,,2013-05-01 23:02:00,
2013-05-01 15:12:00,24.0,-99.9,30.01,NNE,14,16.0,27.0,-999,-99.99,,,-99.99,,2013-05-01 23:12:00,
2013-05-01 15:22:00,-999.0,-99.9,30.02,NNE,29,18.0,25.0,-999,-99.99,,,-99.99,,2013-05-01 23:22:00,
2013-05-01 15:32:00,-999.0,-99.9,30.02,NE,34,15.0,22.0,-999,-99.99,,,-99.99,,2013-05-01 23:32:00,
2013-05-01 15:42:00,-999.0,-99.9,30.01,NE,38,20.0,26.0,-999,-99.99,,,-99.99,,2013-05-01 23:42:00,
2013-05-01 15:52:00,24.0,-99.9,30.01,NE,41,20.0,24.0,-999,-99.99,,,-99.99,,2013-05-01 23:52:00,
2013-05-01 16:01:00,-999.0,-99.9,30.01,NE,36,21.0,26.0,-999,-99.99,,,-99.99,,2013-05-02 00:01:00,
2013-05-01 16:11:00,25.0,-99.9,30.01,NNE,30,19.0,26.0,-999,-99.99,,,-99.99,,2013-05-02 00:11:00,
2013-05-01 16:22:00,-999.0,-99.9,30.00,NE,45,17.0,25.0,-999,-99.99,,,-99.99,,2013-05-02 00:22:00,
2013-05-01 16:32:00,-999.0,-99.9,30.01,NE,45,15.0,19.0,-999,-99.99,,,-99.99,,2013-05-02 00:32:00,
2013-05-01 16:42:00,-999.0,-99.9,30.01,NE,35,19.0,26.0,-999,-99.99,,,-99.99,,2013-05-02 00:42:00,
2013-05-01 16:52:00,-999.0,-99.9,30.00,NNE,30,20.0,25.0,-999,-99.99,,,-99.99,,2013-05-02 00:52:00,
2013-05-01 17:01:00,-999.0,-99.9,30.00,NNE,15,11.0,20.0,-999,-99.99,,,-99.99,,2013-05-02 01:01:00,
2013-05-01 17:11:00,24.0,-99.9,30.01,North,355,17.0,21.0,-999,-99.99,,,-99.99,,2013-05-02 01:11:00,
2013-05-01 17:22:00,-999.0,-99.9,30.01,North,2,10.0,20.0,-999,-99.99,,,-99.99,,2013-05-02 01:22:00,
2013-05-01 17:32:00,-999.0,-99.9,30.02,NNW,347,14.0,19.0,-999,-99.99,,,-99.99,,2013-05-02 01:32:00,
2013-05-01 17:42:00,23.0,-99.9,30.02,NNW,347,7.0,16.0,-999,-99.99,,,-99.99,,2013-05-02 01:42:00,
2013-05-01 17:52:00,-999.0,-99.9,30.02,North,350,7.0,13.0,-999,-99.99,,,-99.99,,2013-05-02 01:52:00,
2013-05-01 18:02:00,-999.0,-99.9,30.01,NNW,343,19.0,23.0,-999,-99.99,,,-99.99,,2013-05-02 02:02:00,
2013-05-01 18:12:00,-999.0,-99.9,30.01,North,351,17.0,27.0,-999,-99.99,,,-99.99,,2013-05-02 02:12:00,
2013-05-01 18:22:00,22.0,-99.9,30.01,North,352,17.0,23.0,-999,-99.99,,,-99.99,,2013-05-02 02:22:00,
2013-05-01 18:32:00,-999.0,-99.9,30.02,North,351,12.0,16.0,-999,-99.99,,,-99.99,,2013-05-02 02:32:00,
2013-05-01 18:42:00,-999.0,-99.9,30.02,North,351,12.0,16.0,-999,-99.99,,,-99.99,,2013-05-02 02:42:00,
2013-05-01 18:52:00,-999.0,-99.9,30.02,North,351,12.0,16.0,-999,-99.99,,,-99.99,,2013-05-02 02:52:00,
2013-05-01 19:01:00,-999.0,-99.9,30.01,North,355,16.0,18.0,-999,-99.99,,,-99.99,,2013-05-02 03:01:00,
2013-05-01 19:11:00,-999.0,-99.9,30.01,North,353,15.0,20.0,-999,-99.99,,,-99.99,,2013-05-02 03:11:00,
2013-05-01 19:22:00,-999.0,-99.9,30.01,North,353,9.0,16.0,-999,-99.99,,,-99.99,,2013-05-02 03:22:00,
2013-05-01 19:33:00,-999.0,-99.9,30.01,NNW,342,13.0,18.0,-999,-99.99,,,-99.99,,2013-05-02 03:33:00,
2013-05-01 19:43:00,22.0,-99.9,30.01,North,354,13.0,17.0,-999,-99.99,,,-99.99,,2013-05-02 03:43:00,
2013-05-01 19:53:00,-999.0,-99.9,30.02,North,354,9.0,13.0,-999,-99.99,,,-99.99,,2013-05-02 03:53:00,
2013-05-01 20:03:00,-999.0,-99.9,30.01,NNW,332,11.0,15.0,-999,-99.99,,,-99.99,,2013-05-02 04:03:00,
2013-05-01 20:12:00,21.0,-99.9,30.01,NNW,332,7.0,13.0,-999,-99.99,,,-99.99,,2013-05-02 04:12:00,
2013-05-01 20:23:00,-999.0,-99.9,30.02,NNW,334,11.0,13.0,-999,-99.99,,,-99.99,,2013-05-02 04:23:00,
2013-05-01 20:33:00,-999.0,-99.9,30.01,NNW,335,11.0,13.0,-999,-99.99,,,-99.99,,2013-05-02 04:33:00,
2013-05-01 20:43:00,-999.0,-99.9,30.01,North,356,10.0,14.0,-999,-99.99,,,-99.99,,2013-05-02 04:43:00,
2013-05-01 20:52:00,-999.0,-99.9,30.01,North,359,10.0,13.0,-999,-99.99,,,-99.99,,2013-05-02 04:52:00,
2013-05-01 21:02:00,-999.0,-99.9,30.01,North,353,9.0,14.0,-999,-99.99,,,-99.99,,2013-05-02 05:02:00,
2013-05-01 21:12:00,22.0,-99.9,30.01,NNW,346,9.0,12.0,-999,-99.99,,,-99.99,,2013-05-02 05:12:00,
2013-05-01 21:22:00,-999.0,-99.9,30.00,North,356,15.0,19.0,-999,-99.99,,,-99.99,,2013-05-02 05:22:00,
2013-05-01 21:32:00,-999.0,-99.9,30.00,North,352,15.0,17.0,-999,-99.99,,,-99.99,,2013-05-02 05:32:00,
2013-05-01 21:42:00,21.0,-99.9,30.01,North,359,7.0,14.0,-999,-99.99,,,-99.99,,2013-05-02 05:42:00,
2013-05-01 21:52:00,-999.0,-99.9,30.01,NNW,347,13.0,15.0,-999,-99.99,,,-99.99,,2013-05-02 05:52:00,
2013-05-01 22:02:00,-999.0,-99.9,30.01,North,351,17.0,20.0,-999,-99.99,,,-99.99,,2013-05-02 06:02:00,
2013-05-01 22:12:00,-999.0,-99.9,30.01,North,349,14.0,22.0,-999,-99.99,,,-99.99,,2013-05-02 06:12:00,
2013-05-01 22:22:00,-999.0,-99.9,30.01,NNW,344,10.0,14.0,-999,-99.99,,,-99.99,,2013-05-02 06:22:00,
2013-05-01 22:32:00,-999.0,-99.9,30.01,North,7,4.0,8.0,-999,-99.99,,,-99.99,,2013-05-02 06:32:00,
2013-05-01 22:42:00,20.0,-99.9,30.01,NE,47,7.0,11.0,-999,-99.99,,,-99.99,,2013-05-02 06:42:00,
2013-05-01 22:52:00,-999.0,-99.9,30.01,North,360,9.0,15.0,-999,-99.99,,,-99.99,,2013-05-02 06:52:00,
2013-05-01 23:02:00,-999.0,-99.9,30.02,NNW,339,12.0,16.0,-999,-99.99,,,-99.99,,2013-05-02 07:02:00,
2013-05-01 23:11:00,15.0,-99.9,30.01,NW,317,11.0,13.0,-999,-99.99,,,-99.99,,2013-05-02 07:11:00,
2013-05-01 23:22:00,-999.0,-99.9,30.02,NNW,340,11.0,15.0,-999,-99.99,,,-99.99,,2013-05-02 07:22:00,
2013-05-01 23:32:00,-999.0,-99.9,30.02,NNW,332,13.0,14.0,-999,-99.99,,,-99.99,,2013-05-02 07:32:00,
2013-05-01 23:42:00,-999.0,-99.9,30.02,North,358,13.0,15.0,-999,-99.99,,,-99.99,,2013-05-02 07:42:00,
2013-05-01 23:52:00,-999.0,-99.9,30.03,NNE,17,10.0,13.0,-999,-99.99,,,-99.99,,2013-05-02 07:52:00,